User: anonymous   Login
Location: Newark
(37.8444°N, 127.0614°E)
Time: 11:18:20
(UTC+00:00)
Language:

UNISAT 6 - Orbit

View from above orbital plane
View from above orbital plane
View from above satellite
View from above satellite

Ground track
Ground track

The orbit data is extracted from the following two-line orbital elements,

1 40012U 14033C   20022.51289269  .00000128  00000-0  26317-4 0  9990
2 40012  97.7283 244.3777 0059547 114.2726 246.4719 14.74058492300776
Epoch (UTC): 22 January 2020 12:18:33
Eccentricity: 0.0059547
inclination: 97.7283°
perigee height: 606 km
apogee height: 690 km
right ascension of ascending node: 244.3777°
argument of perigee: 114.2726°
revolutions per day: 14.74058492
mean anomaly at epoch: 246.4719°
orbit number at epoch: 30077

The dashed part of the orbit path shows where the satellite is in the earth's shadow,  

DLR